"Pseudo-MPEC" for P116gz6

Created 2020 Sep 20 3:07:29 UT using Find_Orb

Click here for an explanation of pseudo-MPECs

 
 Astrometry: 
     P116gz6  C2020 08 196IyH7tO_u@R%tO'wH=DrsWXY?rKXtjremq3^FCu\u0%[.MxRyq/1F52
     P116gz6  C2020 08 19*(^/:XfwG7d,]OX%2M*m51kgePvF24VLm08jWOU=g5mE,L230%HAF52
     P116gz6  C2020 09 06.35069 23 01 22.73 +16 23 10.9    ~9H1q       VNEOCPG96
     P116gz6  C2020 09 06.35644 23 01 22.63 +16 23 06.4    ~9H1q 21.3 GVNEOCPG96
     P116gz6  C2020 09 06.36221 23 01 22.49 +16 23 01.4    ~9H1q 21.3 GVNEOCPG96
     P116gz6  C2020 09 11.25092 22 59 58.20 +15 19 06.7    ~9H17 21.1 GVNEOCPG96
     P116gz6  C2020 09 11.25651 22 59 58.07 +15 19 01.8    ~9H17 21.7 GVNEOCPG96
     P116gz6  C2020 09 11.26209 22 59 58.12 +15 18 55.0    ~9H17 20.6 GVNEOCPG96
     P116gz6  C2020 09 16K5`g?]h+KDWTIceRr)?-P?9+Lf0N-5=n#\+kgVixOw!8TdEMqOFeF51
     P116gz6  C2020 09 16+Qkq@%Q]M.t2y;BBnqsoc6#M[+yeQp]/hy)G*AN9o`ld(5XT.N=DF51
     P116gz6  C2020 09 16+kZ6DEhbo%K]$U^.P2!yrncU)B/kJjUKJloI4W9]Vq8:YBM[AyO*F51
     P116gz6 KC2020 09 16.2=WPxG`IK,stt*93go^Yc=!6RBj['xm-K8nrR=D^6rXueEb4)Bx204
     P116gz6 KC2020 09 16C4-@$h!W\bsaTA3,^WDOAstrometry*Jo!f*^.(_,plO4',pCYWx204
     P116gz6 KC2020 09 17E*8Og,+kV-X`k@B*L8PRAe3M5W`GU`l9SHB@/Nfe5xKZm?k_ow[4204
     P116gz6 KC2020 09 171bJBIqQc=je37t;#_*!ddsW)qSRg':7#=bT'%Dwk14eLk%VFiu@!711
     P116gz6 KC2020 09 17$^LWT$E5r68jSlqXkn#]C)NH9uk4ol9SJbvIwI`j9m\0K'X)*;3D711
     P116gz6 KC2020 09 17NL?s;hredacted;fTu^X][(5*B%C5;-:C?C'[InYQtRK5@kC;Oyd711
     P116gz6 KC2020 09 17^hnmkobx/_-fS042b/gx^2ByaxRL\@tgf1Pt5\'Vi8DUTSsu,W-(H36
     P116gz6 KC2020 09 171HcN*I2qiC!-=kDy!37ECkS@_NMg_uGJ=`MO2r3#iXGhY5Y%X$XNH36
     P116gz6 KC2020 09 17DqVq^oG_rKXRQDn#Xqlj?5J.n)fM;nq2KCJ@j/lo1%GbIoe[f1L_H36
     P116gz6 |C2020 09 17PGI33vN\m:-6d'Zst)^yPFEe^fPd%QnM':vUvCI)43eH`_RD8\D:H06
     P116gz6 |C2020 09 17\cRH9p'Dd.DkItErI),6nTv-`tECr9%5F'Obs[qr@F[?*H$up3K#H06
     P116gz6 |C2020 09 17MprO.V72?dmj6N0]/OUmR4hHGnLtn(EfDtN:+eM$*tn@HX#W-3%_H06
     P116gz6 ^C2020 09 17.36252122 58 15.615+13 44 10.86   ~9HIb 20.79GVNEOCP568
     P116gz6 ^C2020 09 17.36370322 58 15.592+13 44 09.69   ~9HIb 20.79GVNEOCP568
     P116gz6 ^C2020 09 17.36490222 58 15.570+13 44 08.51   ~9HIb 20.82GVNEOCP568
     P116gz6  C2020 09 17GGbn;hB/pgvo$/!D6YN1'n3_LEF9J``qH.3jPB`rr/hQ?Cu/#@)KF51
     P116gz6  C2020 09 17ThQyhj#NPtv^a@i*'aV6)-/L\sN_91eGSA-#p7RFvmgewH.8/o[RF51
     P116gz6  C2020 09 17uckht06MMjn4HKTeGG,fyTl-lUVnjbCS.2'HTEl#Ynu+H:,pFsoTF51
     P116gz6  C2020 09 17?V!ufIeOms7%U'U!s2Zh-?jHL:HE/#?X9`'Y5tRLSR[Za\.MqP56F51
     P116gz6 KC2020 09 18@7[_;DZtM$V,m*8s^E.`k4VI,Q:IfyddpD\DL:X-_qZCpi;V4BjP711
     P116gz6 KC2020 09 18Rm6]-_#a$h1$UN?0ao2al(*-^r))H6P8s8RwSV?d2Csab)HCR4^D711
     P116gz6 KC2020 09 18hRT`5]bKhyRPYbowulp6/T^R,L6+hX7BLZZxH4wNA'a)v^XBTn+.711
     P116gz6 KC2020 09 18,7oXMF_click7CWc#7;KLlyGs:PIx/FRWQ;di0Bp0CV!f3C%4n+GL01
     P116gz6 KC2020 09 18RTa\W_E#k#/,gxpcHZ`$[LlToKh=Vnd.%DZj70mFp4xgQG!8%]q7L01
     P116gz6 KC2020 09 18hBY+RMJ:*O_n)U$PVNToo!qa[TREnO$S[+#hereviS5-!cYn?-2sL01
     P116gz6 KC2020 09 18#[OtC0(I'qE_J'DNW4[lA\0^oX#jQ%KZSHD5q`B`!GAOx40jUF:;L01
     P116gz6 1C2020 09 18XqqQ'\*PZ@!u6D[8k8@*D5*xOE0!2WGmnRCNLEIbC^Th:Fb:Ll8b246
     P116gz6 1C2020 09 18v6kuFFk2$9rEIFqHJ3k.hYI4u=;gV#=lHlmo8%sQ+EPUk!Wo4I$V246
     P116gz6 1C2020 09 18\'kXxfor`yT=q!eexplanationcnZ!s-,Y,\4R]kGLn%(+,M=+39246
     P116gz6 1C2020 09 18P3nQbPR689oDO]vg(x9Q#A\dIyI\og)1)4M3@c%Y2$/Iv,R5]V0s246

Station data:
(204) Schiaparelli Observatory  (N45.867933 E8.770800)  Italy.  Observer L.
   Buzzi. 0.60-m f/4.64 Newtonian + CCD.
(246) Klet Observatory-KLENOT  (N48.863293 E14.288100)  Czech Republic.
   1.06-m KLENOT telescope.
(568) Mauna Kea  (N19.826116 W155.472200)  US/Hawaii.
(711) McDonald Observatory, Fort Davis  (N30.671481 W104.021500)  US/Texas.
   0.76-m f/3.0 reflector.
(F51) Pan-STARRS 1, Haleakala  (N20.707235 W156.255910)  US/Hawaii.
   Observers N. Primak, A. Schultz, S. Watters, J. Thiel, T. Goggia. Measurer
   PS1 Science Consortium. 1.8-m Ritchey-Chrétien + CCD.
(F52) Pan-STARRS 2, Haleakala  (N20.707384 W156.255910)  US/Hawaii. 1.8-m
   Ritchey-Chrétien + CCD.
(G96) Mt. Lemmon Survey  (N32.442754 W110.788720)  US/Arizona.  Observers T.
   A. Pruyne, B. M. Africano, E. J. Christensen, G. A. Farneth, D. C. Fuls,
   A. R. Gibbs, A. D. Grauer, H. Gröller, J. A. Johnson, R. A. Kowalski, S.
   M. Larson, G. J. Leonard, D. Rankin, R. L. Seaman, F. C. Shelly. 1.5-m
   reflector + 10K CCD.
(H06) RAS Observatory, Mayhill  (N32.903325 W105.528700)  US/New
   Mexico.  Observers E. Guido, G. Sostero, V. Gonano, L. Donato.
(H36) Sandlot Observatory, Scranton  (N38.797693 W95.706400)  US/Kansas.
   Observer G. Hug. 0.56-m reflector + CCD.
(L01) Višnjan Observatory, Tičan  (N45.290900 E13.749300)  Croatia.
   Observers K. Korlević, E. Pettarin. Measurer E. Pettarin. 1.0-m f/2.9
   reflector + CCD.

Orbital elements:  P116gz6
   Perihelion 2020 Dec 21.880929 +/- 0.0765 TT = 21:08:32 (JD 2459205.380929)
Epoch 2020 Sep 18.0 TT = JDT 2459110.5   Earth MOID: 0.7791   AutoNEOCP
M 357.09525217 +/- 0.038            (J2000 ecliptic)
n   0.03061466 +/- 0.000432         Peri.  202.21617 +/- 0.07
a  10.1200590 +/- 0.0952            Node   197.69763 +/- 0.018
e   0.8264582 +/- 0.00168           Incl.   22.38363 +/- 0.020
P  32.19                   H 18.7   G  0.15   U  7.5  
q 1.75625295 +/- 0.000464    Q 18.4838650 +/- 0.187
From 41 observations 2020 Aug. 19-Sept. 18; mean residual 0".52
Residuals in arcseconds: 
200819 F52  .23+  .18+    200917 711  .71+  .46+    200917 F51  .11+  .01-    
200819 F52  .45+  .12-    200917 711  .68+  .36+    200917 F51  .02-  .17+    
200906 G96  .44-  .16+    200917 711  .65+  .35+    200918 711  .19+  .48+    
200906 G96  .26-  .20-    200917 H36  .09+  .29+    200918 711  .21+  .23+    
200906 G96  .65-  1.0-    200917 H36  .23+  .59+    200918 711  .36+  .13+    
200911 G96  .88-  .97+    200917 H36  .37+  .15+    200918 L01  .09-  .29-    
200911 G96  1.1-  .82+    200917 H06  .44+  .32+    200918 L01  .18+  .34-    
200911 G96  1.2+  1.2-    200917 H06  .15-  .46+    200918 L01  .64+  .70-    
200916 F51  .04-  .21+    200917 H06  .13+  .49+    200918 L01  .05+  .34+    
200916 F51  .06+  .18+    200917 568  .01-  .19+    200918 246  .33+  .08-    
200916 F51  .09+  .08+    200917 568  .02-  .21+    200918 246  .12-  1.5-    
200916 204  .95-  .44-    200917 568  .01-  .24+    200918 246  .68-  1.3-    
200916 204  .61-  .28-    200917 F51  .06+  .19+    200918 246  .99-  .83-    
200917 204  .03-  .03+    200917 F51  .13+  .11+    

Ephemerides (geocentric):
Date (UTC) HH   RA              Dec         delta   r     elong  mag " sig PA
---- -- -- --  -------------   -----------  ------ ------ -----  --- ---- ---
2020 09 20 03  22 57 34.050   +12 56 14.02  1.0841 2.0593 160.9 21.1 .222  61
2020 09 20 04  22 57 33.461   +12 55 29.29  1.0839 2.0591 160.9 21.1 .227  61
2020 09 20 05  22 57 32.873   +12 54 44.52  1.0837 2.0589 160.8 21.0 .231  61
2020 09 20 06  22 57 32.287   +12 53 59.71  1.0834 2.0586 160.8 21.0 .236  60
2020 09 20 07  22 57 31.701   +12 53 14.87  1.0832 2.0584 160.8 21.0 .240  60
2020 09 20 08  22 57 31.117   +12 52 29.99  1.0830 2.0581 160.8 21.0 .245  60
2020 09 20 09  22 57 30.534   +12 51 45.07  1.0828 2.0579 160.8 21.0 .250  60
2020 09 20 10  22 57 29.952   +12 51 00.11  1.0826 2.0576 160.8 21.0 .255  60
2020 09 20 11  22 57 29.372   +12 50 15.12  1.0824 2.0574 160.8 21.0 .259  59
2020 09 20 12  22 57 28.792   +12 49 30.09  1.0822 2.0572 160.8 21.0 .264  59
2020 09 20 13  22 57 28.214   +12 48 45.02  1.0819 2.0569 160.8 21.0 .269  59
2020 09 20 14  22 57 27.638   +12 47 59.91  1.0817 2.0567 160.8 21.0 .274  59
2020 09 20 15  22 57 27.062   +12 47 14.77  1.0815 2.0564 160.8 21.0 .279  59
2020 09 20 16  22 57 26.488   +12 46 29.58  1.0813 2.0562 160.8 21.0 .284  59
2020 09 20 17  22 57 25.915   +12 45 44.36  1.0811 2.0559 160.8 21.0 .289  58
2020 09 20 18  22 57 25.343   +12 44 59.11  1.0809 2.0557 160.8 21.0 .294  58
2020 09 20 19  22 57 24.772   +12 44 13.81  1.0807 2.0554 160.7 21.0 .299  58
2020 09 20 20  22 57 24.203   +12 43 28.48  1.0805 2.0552 160.7 21.0 .304  58
2020 09 20 21  22 57 23.635   +12 42 43.11  1.0803 2.0550 160.7 21.0 .309  58
2020 09 20 22  22 57 23.068   +12 41 57.71  1.0800 2.0547 160.7 21.0 .314  58
2020 09 20 23  22 57 22.503   +12 41 12.26  1.0798 2.0545 160.7 21.0 .320  58
2020 09 21 00  22 57 21.939   +12 40 26.78  1.0796 2.0542 160.7 21.0 .325  57
2020 09 21 01  22 57 21.376   +12 39 41.27  1.0794 2.0540 160.7 21.0 .330  57
2020 09 21 02  22 57 20.814   +12 38 55.71  1.0792 2.0537 160.7 21.0 .335  57
2020 09 21 03  22 57 20.254   +12 38 10.12  1.0790 2.0535 160.7 21.0 .341  57
2020 09 21 04  22 57 19.695   +12 37 24.50  1.0788 2.0533 160.7 21.0 .346  57
2020 09 21 05  22 57 19.137   +12 36 38.83  1.0786 2.0530 160.7 21.0 .352  57
2020 09 21 06  22 57 18.581   +12 35 53.13  1.0784 2.0528 160.7 21.0 .357  57
2020 09 21 07  22 57 18.026   +12 35 07.39  1.0782 2.0525 160.6 21.0 .363  56
2020 09 21 08  22 57 17.473   +12 34 21.62  1.0780 2.0523 160.6 21.0 .368  56
2020 09 21 09  22 57 16.920   +12 33 35.81  1.0778 2.0521 160.6 21.0 .374  56
2020 09 21 10  22 57 16.369   +12 32 49.97  1.0776 2.0518 160.6 21.0 .379  56
2020 09 21 11  22 57 15.820   +12 32 04.08  1.0774 2.0516 160.6 21.0 .385  56
2020 09 21 12  22 57 15.271   +12 31 18.17  1.0772 2.0513 160.6 21.0 .391  56
2020 09 21 13  22 57 14.724   +12 30 32.21  1.0770 2.0511 160.6 21.0 .396  56
2020 09 21 14  22 57 14.179   +12 29 46.22  1.0768 2.0508 160.6 21.0 .402  56
2020 09 21 15  22 57 13.635   +12 29 00.19  1.0766 2.0506 160.6 21.0 .408  55
2020 09 21 16  22 57 13.092   +12 28 14.13  1.0764 2.0504 160.6 21.0 .414  55
2020 09 21 17  22 57 12.550   +12 27 28.03  1.0762 2.0501 160.5 21.0 .420  55
2020 09 21 18  22 57 12.010   +12 26 41.90  1.0760 2.0499 160.5 21.0 .426  55
2020 09 21 19  22 57 11.472   +12 25 55.73  1.0758 2.0496 160.5 21.0 .432  55
2020 09 21 20  22 57 10.934   +12 25 09.52  1.0756 2.0494 160.5 21.0 .438  55
2020 09 21 21  22 57 10.399   +12 24 23.28  1.0754 2.0492 160.5 21.0 .444  55
2020 09 21 22  22 57 09.864   +12 23 37.01  1.0752 2.0489 160.5 21.0 .450  55
2020 09 21 23  22 57 09.331   +12 22 50.69  1.0750 2.0487 160.5 21.0 .456  54
2020 09 22 00  22 57 08.799   +12 22 04.35  1.0748 2.0484 160.5 21.0 .462  54
2020 09 22 01  22 57 08.269   +12 21 17.96  1.0746 2.0482 160.5 21.0 .468  54
2020 09 22 02  22 57 07.740   +12 20 31.55  1.0744 2.0479 160.4 21.0 .474  54